Theta_e
299 296 292 295 296 293 293 291 290 292 294 294 295 295 298 301 300 301 303 304 304 305 307 305 306 307 308 318 326 330 333 333 332 331 329 328 326 328 330 332 329 327 323 322
295 292 296 297 293 292 292 290 290 291 294 294 293 294 298 299 299 302 303 303 303 303 304 303 304 304 305 307 315 323 329 333 331 331 331 330 329 329 330 332 330 327 322 322
293 293 295 294 291 291 291 290 290 290 291 292 291 292 293 295 295 297 298 299 299 299 301 304 305 305 304 304 307 315 322 328 332 331 331 329 328 326 327 326 329 327 322 320
293 292 292 292 291 293 288 292 291 290 290 287 291 286 292 294 294 295 297 298 300 301 302 303 304 307 309 309 306 306 316 322 329 331 329 328 326 324 326 328 326 327 324 321
291 290 291 290 292 293 291 292 291 291 290 289 288 287 291 290 293 294 296 297 299 300 301 301 303 304 309 313 310 304 311 319 325 330 328 327 327 328 328 328 326 324 324 323
292 294 294 293 291 293 293 292 291 290 289 284 288 287 288 291 292 293 294 298 299 300 300 301 302 304 305 311 317 314 307 315 323 326 327 326 326 326 325 325 325 324 323 322
290 291 293 294 291 292 292 291 284 282 283 282 285 284 290 292 292 294 296 299 298 299 301 301 302 303 303 305 309 312 314 314 319 323 324 324 325 325 325 325 324 323 320 316
285 283 291 294 292 290 291 291 285 279 279 282 284 283 289 292 294 295 298 298 299 300 300 300 300 301 302 303 305 307 311 312 314 317 318 320 321 322 322 322 323 323 321 320
285 285 292 292 293 294 289 287 291 282 277 282 286 288 293 293 295 296 296 297 297 298 298 299 299 300 301 302 303 305 306 307 309 311 312 314 315 315 315 315 315 316 316 312
290 284 289 291 294 293 291 293 285 286 280 279 283 284 288 290 293 294 295 296 296 296 297 298 298 299 300 300 302 304 304 304 305 307 309 310 311 311 311 310 310 309 308 306
291 289 286 290 289 289 288 287 288 289 287 283 280 284 292 294 296 295 296 296 296 297 297 297 297 297 298 299 300 300 301 302 303 305 305 306 307 308 310 310 310 310 307 306
293 290 285 287 291 292 292 290 290 285 282 284 283 285 291 293 297 298 296 295 296 297 296 296 296 296 296 296 296 297 297 298 299 302 303 303 304 304 305 305 304 304 305 303
292 289 284 284 289 290 288 289 291 291 288 284 284 286 292 295 295 296 295 296 295 295 295 295 295 295 294 294 294 295 295 296 297 299 300 300 300 301 301 301 301 300 300 300
295 289 287 283 286 290 287 288 289 289 285 286 286 289 290 292 294 294 294 296 295 294 294 294 294 293 293 293 293 293 293 294 295 295 295 295 296 296 297 298 298 298 298 298
294 286 288 290 289 291 291 289 290 287 289 286 289 288 292 295 296 296 295 295 293 292 292 292 292 292 292 292 292 292 292 292 293 292 292 291 292 292 293 293 294 295 295 295
293 287 289 285 289 289 287 290 291 290 290 290 290 289 295 299 299 296 294 293 292 292 292 292 291 290 290 290 291 291 290 290 291 290 289 289 289 289 290 290 290 292 292 292
290 287 286 284 287 287 283 287 289 290 291 291 287 292 293 293 293 295 294 292 292 292 292 291 291 291 289 289 289 290 289 289 288 288 287 286 286 286 287 288 288 288 290 290
287 288 287 285 285 278 288 292 294 290 292 293 293 293 293 294 295 296 296 293 292 292 291 291 291 290 288 288 289 289 288 287 286 285 285 284 284 284 285 286 286 287 288 288
294 289 285 283 282 286 289 287 289 288 288 293 293 292 292 291 292 291 293 294 293 292 292 292 292 287 286 285 286 286 285 285 284 283 283 283 282 281 283 283 284 285 284 285
289 293 287 283 281 279 286 287 291 293 285 296 294 292 290 291 288 293 291 291 291 292 291 289 286 284 283 282 284 284 282 281 280 279 280 281 281 279 280 282 282 283 284 285
283 284 283 283 282 285 289 288 291 284 288 290 294 295 291 292 296 294 291 290 290 289 286 285 284 282 280 280 281 280 279 277 277 277 278 278 278 278 280 280 281 283 285 284
283 282 282 284 281 280 287 287 288 292 287 289 292 293 291 289 290 289 289 287 284 282 282 282 280 278 277 277 278 277 275 274 274 273 274 274 275 277 279 278 280 281 283 284
282 288 286 286 287 288 290 291 292 290 291 288 290 290 289 288 288 287 286 284 282 280 279 278 278 275 274 274 273 274 272 271 270 268 269 272 274 276 278 278 278 280 281 282
284 284 286 287 287 286 287 288 288 289 290 289 289 289 289 287 286 284 283 281 279 277 276 275 275 274 272 271 269 269 268 267 265 267 270 272 272 273 275 278 280 279 279 279
285 284 283 284 283 286 288 288 290 287 285 286 287 287 287 286 284 283 280 279 277 275 274 274 274 272 269 269 268 266 265 264 265 267 270 271 272 272 273 275 277 279 280 281
283 283 284 286 287 289 289 290 288 285 284 285 284 283 285 285 282 281 278 277 275 273 272 271 270 269 267 267 266 264 262 262 262 267 268 269 269 271 272 273 275 279 281 282
Wind_Speed
3 8 12 11 7 1 4 4 5 2 2 3 8 13 12 9 9 11 12 12 12 11 5 3 5 8 12 15 17 19 19 19 13 10 9 9 9 8 8 10 13 13 11 13
6 13 8 8 8 6 5 5 3 2 1 3 1 12 13 9 9 12 11 9 9 10 8 5 5 7 10 12 16 18 19 18 15 11 10 8 9 7 9 10 11 13 13 12
12 4 11 7 7 8 3 7 4 2 3 2 5 9 6 2 6 7 5 4 3 3 3 5 6 4 5 7 10 13 16 18 17 15 9 5 3 2 6 8 9 12 12 12
5 2 11 8 7 8 8 8 5 6 2 4 3 7 4 3 9 4 3 3 3 4 4 5 7 7 6 5 5 10 13 15 15 17 12 12 10 9 8 8 7 10 13 13
6 11 13 8 7 10 3 5 4 3 3 1 4 6 3 1 7 6 4 2 1 3 4 6 7 7 7 6 4 3 8 11 13 14 15 10 11 9 6 7 9 10 10 13
3 2 3 4 4 3 15 8 7 4 1 6 8 7 4 6 5 5 2 2 2 5 6 6 5 6 8 8 8 6 5 7 10 13 15 14 12 11 6 7 7 7 7 8
3 3 2 3 9 5 3 13 3 3 5 6 1 5 8 4 4 3 3 5 4 5 6 6 7 8 8 10 10 8 8 5 5 8 10 10 9 7 9 8 8 7 5 4
13 8 11 6 4 10 11 9 7 8 6 2 2 10 5 1 1 2 6 5 7 8 6 7 7 7 7 9 9 9 9 8 7 4 1 3 3 3 2 4 5 6 6 6
11 11 0 1 4 12 7 9 3 8 1 2 6 5 10 6 5 8 8 7 8 8 6 7 7 6 7 9 9 9 9 8 8 6 5 4 4 3 3 3 2 2 2 1
8 5 1 2 4 1 7 13 5 4 6 7 7 6 10 7 12 11 10 10 7 6 6 6 6 7 6 8 8 8 8 8 7 6 5 4 4 3 1 1 2 2 1 1
7 3 2 4 12 16 7 8 4 3 5 7 5 7 4 12 17 17 13 11 9 8 6 5 5 7 6 8 8 8 8 8 7 6 5 5 4 4 4 3 2 2 1 2
9 5 7 11 2 4 8 14 17 9 9 4 2 9 0 5 16 16 14 11 9 7 7 5 5 7 7 8 8 9 8 8 7 6 6 6 5 5 4 4 4 4 3 3
12 6 4 3 5 3 9 7 10 9 3 11 6 9 5 6 12 12 16 13 9 9 8 6 6 6 7 7 8 8 7 9 8 7 7 7 7 6 6 5 4 3 3 3
16 4 18 18 11 10 10 12 13 13 8 17 14 21 6 10 13 13 13 12 11 9 8 7 6 6 7 6 6 7 8 8 8 8 8 9 8 7 6 5 5 5 5 5
11 10 11 14 4 7 10 16 21 21 26 17 27 19 16 23 20 19 15 13 12 11 10 8 7 6 6 5 6 6 9 9 8 9 10 9 8 8 8 8 7 5 4 4
4 3 8 6 10 9 4 16 23 27 28 24 23 19 7 19 14 15 16 16 14 13 11 9 8 6 5 4 5 7 8 8 7 8 8 8 9 9 8 7 6 5 5 5
10 7 5 12 7 5 7 27 18 21 26 24 23 24 8 10 15 18 18 18 16 15 13 12 10 7 5 5 5 6 6 5 7 7 7 7 7 6 7 7 7 6 7 6
9 10 3 3 6 9 13 4 25 23 18 22 21 6 16 15 20 15 16 18 16 16 14 12 9 7 5 5 5 5 5 5 5 5 5 5 6 5 6 6 6 6 6 6
8 8 5 7 10 6 12 6 10 15 27 21 22 6 7 9 10 7 11 13 14 13 12 10 7 7 6 6 5 5 5 5 5 7 7 8 8 8 8 6 7 6 6 5
2 10 9 5 8 12 3 5 4 6 21 11 19 16 14 15 11 8 17 15 15 13 11 11 10 8 7 5 3 4 4 5 7 8 8 7 7 7 7 8 8 7 7 7
6 5 13 7 5 7 4 6 6 11 5 2 16 19 20 16 9 13 19 15 15 13 13 11 10 8 6 4 2 5 5 7 6 7 6 7 7 7 6 7 7 7 6 7
8 8 6 4 6 13 8 6 11 4 2 2 4 8 12 7 12 19 19 19 17 15 12 9 9 8 5 5 3 5 6 6 7 8 8 8 7 6 6 8 8 8 7 7
5 5 7 9 6 3 12 1 3 2 3 5 7 7 13 15 16 18 18 18 15 13 10 7 8 8 5 6 7 5 5 8 8 7 6 7 8 6 7 7 8 7 7 7
4 3 3 2 2 2 5 2 2 3 3 3 5 14 15 15 17 16 13 13 12 10 9 6 7 6 6 5 6 5 5 7 6 7 8 8 9 10 8 7 5 6 7 7
2 9 5 4 1 2 7 11 5 3 2 5 9 10 14 21 16 17 14 12 11 10 8 6 6 6 5 3 4 5 6 6 6 7 7 8 7 8 9 8 8 7 7 7
6 6 8 7 9 4 3 10 8 9 7 8 12 9 8 14 17 15 12 10 10 10 8 6 6 5 4 4 4 4 4 5 5 6 5 6 7 7 7 8 10 12 14 16
Wind_Direction
124 198 200 185 192 95 139 143 175 127 84 219 233 265 267 270 269 247 245 248 249 256 286 255 261 249 236 229 222 219 213 209 198 195 195 195 199 204 204 210 207 198 193 193
164 213 182 156 158 150 153 143 164 81 45 243 296 276 271 251 252 256 256 246 264 275 285 305 305 272 239 231 226 224 221 213 207 200 199 205 198 206 206 211 206 203 198 192
196 152 151 151 167 153 173 195 175 193 177 133 304 264 276 234 255 265 257 256 246 270 342 358 4 342 284 244 233 229 225 219 208 209 197 198 176 134 200 202 203 207 198 196
209 111 156 154 181 185 204 203 166 156 155 262 356 289 277 253 278 236 176 124 120 91 76 32 21 19 10 325 269 237 226 221 217 206 201 197 204 202 210 207 203 207 203 199
166 163 159 177 184 180 200 144 116 84 113 312 180 254 250 354 262 183 161 110 87 61 61 49 32 20 16 11 10 222 218 214 211 210 213 206 214 223 206 204 188 200 203 207
107 355 201 139 76 152 147 108 74 80 109 251 207 230 220 213 233 148 134 125 105 107 95 76 54 41 35 34 44 60 159 192 203 211 213 218 218 219 199 194 202 201 201 203
130 172 141 148 104 110 177 158 122 198 203 249 66 211 260 221 197 183 152 137 123 112 94 75 61 50 40 38 44 55 71 83 176 210 220 226 230 234 216 202 203 195 188 193
180 199 177 170 191 171 180 190 172 193 197 190 91 230 248 103 299 186 112 114 124 112 100 76 57 54 51 46 44 55 64 57 47 54 3 324 295 245 220 207 205 206 208 210
189 207 124 156 149 156 174 214 112 102 50 232 206 247 261 214 167 150 132 140 127 116 106 93 78 61 60 59 47 51 61 60 53 44 43 32 16 358 322 307 313 308 313 231
173 149 348 141 138 53 204 141 156 219 190 229 215 255 236 190 182 162 157 151 138 119 112 101 91 79 70 71 64 58 59 63 56 56 46 25 8 12 9 316 303 303 3 5
142 127 121 167 212 179 154 185 192 192 203 216 236 242 227 208 179 170 162 158 152 134 117 112 104 91 79 71 66 59 50 52 50 43 46 50 41 22 6 350 356 320 296 270
175 123 164 198 31 295 221 211 186 196 195 259 312 252 186 209 166 164 163 164 158 149 149 135 108 89 74 68 60 56 46 48 35 36 46 49 46 35 38 27 4 8 356 334
167 190 138 188 223 197 224 197 230 234 38 209 201 249 24 146 154 160 158 166 173 162 149 135 114 95 84 70 62 59 49 55 46 48 48 40 32 27 25 26 2 353 340 302
158 146 212 217 225 154 204 204 206 202 210 225 226 242 163 181 176 175 177 170 169 168 155 135 119 96 81 71 71 68 61 52 51 53 53 47 31 20 13 2 9 1 347 316
171 203 213 239 277 207 200 195 197 201 223 216 240 233 203 190 191 191 174 171 173 172 164 147 134 115 105 98 87 79 61 51 44 51 46 36 26 23 22 19 8 347 331 331
224 204 168 233 207 216 223 213 205 215 225 229 242 250 226 195 180 178 185 178 181 174 162 153 147 143 125 126 88 72 62 53 48 52 43 27 23 20 16 8 2 7 9 10
165 145 137 241 171 135 270 222 209 217 222 222 228 235 155 178 187 185 184 187 181 175 168 166 165 148 144 96 79 77 70 59 53 48 36 26 16 13 7 358 3 7 9 357
171 174 128 208 131 207 250 184 225 221 230 226 244 206 181 189 198 184 183 178 178 172 168 165 158 145 112 96 96 101 85 69 61 48 35 19 9 3 358 360 8 8 1 356
203 156 162 193 206 305 254 196 171 187 237 216 224 172 158 124 130 205 182 182 168 160 156 152 143 118 99 77 69 86 71 60 44 25 14 5 2 354 351 355 353 353 342 337
107 191 193 166 206 219 314 169 150 130 261 189 202 184 163 154 196 193 171 149 142 140 143 144 131 116 99 61 61 107 78 56 33 9 354 347 346 340 340 338 332 328 318 299
158 161 197 172 219 273 208 150 167 170 256 288 198 189 165 187 203 132 137 135 134 138 138 134 130 114 93 59 64 82 59 36 3 348 339 344 345 332 326 323 318 309 292 298
162 159 181 158 204 247 145 121 189 188 103 153 139 165 180 109 129 138 134 138 138 135 132 131 126 113 82 50 56 77 53 6 357 349 344 335 331 328 332 323 317 309 293 283
197 194 167 200 209 29 187 57 163 205 159 179 155 154 142 136 142 142 138 139 141 137 129 126 130 123 83 53 36 58 25 0 353 342 338 333 331 328 328 322 323 320 322 316
252 193 198 154 155 217 224 293 278 219 246 161 138 147 148 144 148 137 136 135 133 135 131 133 128 110 86 53 55 48 19 359 347 344 342 339 339 337 335 324 318 317 317 316
182 153 165 266 213 305 245 225 216 167 100 114 128 148 152 143 146 142 137 134 135 132 128 124 120 114 107 88 74 49 20 3 355 343 340 341 333 330 325 322 315 308 297 295
191 176 190 224 169 191 205 210 163 153 177 160 141 124 136 148 140 137 131 133 137 139 137 129 123 125 104 84 66 43 16 8 354 334 336 333 324 327 323 321 318 312 299 295